TimeCST,TemperatureF,Dew PointF,Humidity,Sea Level PressureIn,VisibilityMPH,Wind Direction,Wind SpeedMPH,Gust SpeedMPH,PrecipitationIn,Events,Conditions,WindDirDegrees,DateUTC
12:35 AM,41.0,28.4,61,30.32,10.0,ENE,3.5,-,N/A,,Clear,60,2012-12-05 06:35:00
1:15 AM,42.8,28.4,57,30.32,10.0,Calm,Calm,-,N/A,,Clear,0,2012-12-05 07:15:00
1:36 AM,37.4,26.6,65,30.32,10.0,ESE,4.6,-,N/A,,Clear,120,2012-12-05 07:36:00
1:55 AM,37.4,28.4,70,30.32,10.0,Calm,Calm,-,N/A,,Clear,0,2012-12-05 07:55:00
2:15 AM,37.4,28.4,70,30.33,10.0,Calm,Calm,-,N/A,,Clear,0,2012-12-05 08:15:00
2:35 AM,37.4,28.4,70,30.32,10.0,Calm,Calm,-,N/A,,Clear,0,2012-12-05 08:35:00
2:55 AM,37.4,28.4,70,30.32,10.0,NNE,3.5,-,N/A,,Clear,30,2012-12-05 08:55:00
3:15 AM,37.4,28.4,70,30.32,10.0,NE,3.5,-,N/A,,Clear,40,2012-12-05 09:15:00
3:35 AM,37.4,26.6,65,30.33,10.0,NNE,4.6,-,N/A,,Clear,20,2012-12-05 09:35:00
4:15 AM,39.2,28.4,65,30.32,10.0,East,3.5,-,N/A,,Clear,90,2012-12-05 10:15:00
4:35 AM,33.8,24.8,70,30.32,10.0,Calm,Calm,-,N/A,,Clear,0,2012-12-05 10:35:00
5:15 AM,33.8,26.6,75,30.32,10.0,ESE,3.5,-,N/A,,Clear,120,2012-12-05 11:15:00
5:35 AM,33.8,26.6,75,30.33,10.0,Calm,Calm,-,N/A,,Clear,0,2012-12-05 11:35:00
5:55 AM,32.0,24.8,75,30.33,10.0,Calm,Calm,-,N/A,,Clear,0,2012-12-05 11:55:00
6:35 AM,32.0,24.8,75,30.33,10.0,ESE,3.5,-,N/A,,Clear,110,2012-12-05 12:35:00
6:55 AM,33.8,26.6,75,30.33,10.0,East,5.8,-,N/A,,Clear,100,2012-12-05 12:55:00
8:35 AM,37.4,30.2,75,30.33,10.0,East,5.8,-,N/A,,Clear,90,2012-12-05 14:35:00
8:55 AM,42.8,32.0,66,30.33,10.0,East,8.1,-,N/A,,Clear,100,2012-12-05 14:55:00
9:15 AM,44.6,32.0,61,30.33,10.0,East,6.9,-,N/A,,Clear,100,2012-12-05 15:15:00
9:35 AM,46.4,33.8,62,30.33,10.0,East,6.9,-,N/A,,Clear,100,2012-12-05 15:35:00
9:55 AM,48.2,32.0,54,30.34,10.0,East,6.9,-,N/A,,Clear,100,2012-12-05 15:55:00
10:15 AM,50.0,33.8,54,30.34,10.0,East,6.9,-,N/A,,Clear,100,2012-12-05 16:15:00
10:35 AM,51.8,32.0,47,30.33,10.0,East,8.1,-,N/A,,Clear,100,2012-12-05 16:35:00
10:55 AM,53.6,32.0,44,30.32,10.0,East,6.9,-,N/A,,Clear,100,2012-12-05 16:55:00
11:15 AM,55.4,32.0,41,30.31,10.0,ESE,12.7,16.1,N/A,,Clear,110,2012-12-05 17:15:00
11:35 AM,55.4,32.0,41,30.30,10.0,ESE,8.1,-,N/A,,Clear,110,2012-12-05 17:35:00
12:15 PM,57.2,30.2,36,30.27,10.0,ESE,6.9,-,N/A,,Clear,110,2012-12-05 18:15:00
12:35 PM,57.2,30.2,36,30.25,10.0,East,5.8,-,N/A,,Clear,90,2012-12-05 18:35:00
12:55 PM,59.0,30.2,34,30.24,10.0,SE,6.9,-,N/A,,Clear,130,2012-12-05 18:55:00
1:16 PM,60.8,30.2,31,30.23,10.0,East,3.5,-,N/A,,Clear,100,2012-12-05 19:16:00
2:15 PM,60.8,30.2,31,30.20,10.0,Calm,Calm,-,N/A,,Clear,0,2012-12-05 20:15:00
2:35 PM,60.8,30.2,31,30.19,10.0,SE,4.6,-,N/A,,Clear,140,2012-12-05 20:35:00
2:55 PM,60.8,28.4,29,30.19,10.0,Calm,Calm,-,N/A,,Clear,0,2012-12-05 20:55:00
3:15 PM,60.8,28.4,29,30.18,10.0,ESE,4.6,-,N/A,,Clear,110,2012-12-05 21:15:00
3:55 PM,59.0,30.2,34,30.18,10.0,East,3.5,-,N/A,,Clear,90,2012-12-05 21:55:00
4:35 PM,55.4,28.4,36,30.17,10.0,East,3.5,-,N/A,,Clear,80,2012-12-05 22:35:00
4:56 PM,55.4,28.4,36,30.17,10.0,East,3.5,-,N/A,,Clear,80,2012-12-05 22:56:00
5:15 PM,53.6,28.4,38,30.17,10.0,ENE,4.6,-,N/A,,Clear,70,2012-12-05 23:15:00
5:35 PM,53.6,28.4,38,30.16,10.0,East,5.8,-,N/A,,Clear,90,2012-12-05 23:35:00
5:56 PM,51.8,28.4,41,30.16,10.0,East,5.8,-,N/A,,Clear,100,2012-12-05 23:56:00
7:15 PM,50.0,28.4,43,30.14,10.0,ESE,5.8,-,N/A,,Clear,120,2012-12-06 01:15:00
7:35 PM,48.2,28.4,46,30.13,10.0,SE,6.9,-,N/A,,Clear,130,2012-12-06 01:35:00
7:55 PM,50.0,30.2,47,30.13,10.0,ESE,9.2,-,N/A,,Clear,120,2012-12-06 01:55:00
8:35 PM,48.2,30.2,50,30.12,10.0,SE,6.9,-,N/A,,Clear,130,2012-12-06 02:35:00
8:55 PM,46.4,30.2,53,30.11,10.0,SE,5.8,-,N/A,,Clear,130,2012-12-06 02:55:00
9:15 PM,46.4,30.2,53,30.11,10.0,ESE,5.8,-,N/A,,Clear,120,2012-12-06 03:15:00
9:35 PM,48.2,30.2,50,30.11,10.0,SE,4.6,-,N/A,,Clear,140,2012-12-06 03:35:00
9:36 PM,46.4,30.2,53,30.11,10.0,SE,4.6,-,N/A,,Clear,140,2012-12-06 03:36:00
9:55 PM,46.4,30.2,53,30.11,10.0,East,4.6,-,N/A,,Clear,100,2012-12-06 03:55:00
10:15 PM,46.4,28.4,50,30.10,10.0,East,4.6,-,N/A,,Clear,100,2012-12-06 04:15:00
10:55 PM,44.6,28.4,53,30.10,10.0,East,3.5,-,N/A,,Clear,100,2012-12-06 04:55:00
11:35 PM,44.6,28.4,53,30.10,10.0,East,3.5,-,N/A,,Clear,80,2012-12-06 05:35:00
11:55 PM,42.8,28.4,57,30.09,10.0,East,5.8,-,N/A,,Clear,100,2012-12-06 05:55:00
11:56 PM,42.8,30.2,61,30.09,10.0,East,5.8,-,N/A,,Clear,100,2012-12-06 05:56:00